Temperature
24 23 22 21 21 21 23 25 28 29 29 28 28 28 27 26 25 23 23 23 23 23 22 21 21 21 21 21 21 21 21 21 21 21 21 21 21 21 20 20 20 20 20 20 20 20 20 20 21
24 23 22 21 22 23 24 25 26 27 28 28 28 27 26 25 24 23 22 22 23 23 22 22 22 21 21 21 21 21 21 21 21 21 21 21 21 21 21 21 21 21 20 20 20 20 21 21 21
25 24 22 21 23 23 24 26 26 27 28 29 28 28 27 24 23 23 24 23 23 24 23 22 22 21 21 21 21 21 21 21 21 21 21 21 21 21 21 21 21 21 21 21 21 21 21 21 21
25 24 23 22 23 24 25 26 27 27 28 29 28 27 26 25 25 25 24 23 24 24 23 22 22 22 21 21 21 21 21 21 21 21 21 21 21 21 21 21 20 20 20 20 20 20 20 20 20
25 24 22 23 24 25 26 27 27 27 28 28 27 25 25 26 26 25 24 24 24 24 23 23 22 22 22 21 21 21 21 21 21 21 20 20 20 20 20 20 20 20 20 20 20 20 20 20 20
25 23 23 23 26 27 27 27 27 27 27 27 26 25 24 25 25 25 25 24 25 25 24 23 22 22 22 21 21 21 21 20 20 20 20 20 20 20 20 20 19 19 19 19 19 19 19 19 20
26 23 24 25 26 27 27 27 27 27 27 27 27 25 24 24 25 25 25 24 25 25 24 24 23 22 22 21 21 21 21 20 20 20 20 20 20 20 20 20 19 19 19 19 19 19 19 19 19
28 23 24 25 27 28 28 27 27 28 27 28 28 25 25 24 24 24 24 24 24 24 24 24 23 23 22 22 21 21 21 21 20 20 20 20 20 20 20 19 19 19 19 19 19 19 19 19 19
28 22 23 25 27 28 28 27 28 28 28 28 28 28 28 26 24 24 24 24 24 24 24 24 24 23 23 22 22 21 21 21 20 20 20 20 20 20 19 19 19 18 18 19 18 19 19 19 19
26 22 24 26 28 29 29 28 28 27 27 26 27 28 28 26 25 24 24 24 24 24 24 24 24 24 23 22 22 22 21 21 21 20 20 20 20 19 19 19 18 18 18 18 18 18 18 18 18
26 24 25 27 29 30 30 30 29 28 26 27 28 28 27 26 25 25 25 25 25 25 24 23 23 23 23 23 22 22 21 20 20 20 20 19 19 19 18 18 18 18 18 18 18 18 18 18 18
26 26 28 29 30 30 30 31 30 29 29 30 30 29 28 26 26 26 25 25 24 24 23 23 23 23 22 22 22 21 21 20 20 20 19 19 19 18 18 18 18 18 18 18 18 18 18 18 18
26 26 29 29 30 30 30 30 30 30 31 30 29 28 27 27 26 26 25 24 24 23 22 22 22 22 22 22 21 21 20 20 20 19 19 18 18 18 18 18 18 18 18 18 18 18 18 18 18
26 26 27 28 29 30 29 29 29 30 30 28 27 27 27 26 26 25 24 24 23 22 22 21 21 21 21 21 21 20 20 20 19 19 19 18 18 18 18 18 18 18 17 17 17 17 17 17 17
27 25 25 27 28 29 28 27 28 31 29 27 26 25 25 24 23 22 21 21 21 21 20 20 20 20 20 20 20 20 19 19 19 19 18 18 18 18 18 18 18 18 17 17 17 17 17 17 17
25 24 24 26 27 28 28 26 28 30 28 26 25 23 22 21 20 20 19 19 19 19 19 18 18 19 19 19 19 19 19 19 19 19 18 18 18 18 18 18 17 17 17 17 17 17 17 16 16
23 23 24 26 27 27 27 25 27 28 26 23 22 21 20 19 19 19 19 19 18 18 18 17 17 17 18 18 19 19 19 19 19 18 18 18 18 18 18 17 17 17 17 17 17 16 16 16 16
23 24 25 26 27 27 26 25 24 24 22 19 18 18 17 18 18 19 19 19 19 18 18 17 16 16 17 17 18 18 19 19 19 19 19 19 19 18 18 17 17 17 16 16 16 16 16 16 15
26 26 26 27 27 26 24 21 19 19 18 17 16 15 15 16 17 18 18 18 18 18 18 17 16 16 16 17 17 18 18 19 19 19 19 19 19 18 18 17 17 16 16 16 16 16 16 16 15
26 26 25 26 27 26 22 19 18 18 17 16 15 14 14 15 16 17 17 17 17 17 17 17 17 17 17 17 18 18 19 19 19 19 19 19 19 18 18 18 17 17 17 17 16 16 16 16 15
26 26 26 26 25 24 23 19 18 18 17 16 15 14 14 14 15 15 16 16 17 16 16 16 16 16 16 17 18 18 19 19 19 19 19 19 19 19 18 18 18 18 18 17 17 17 16 16 16
25 26 27 26 24 21 22 20 18 17 17 17 15 14 14 14 15 15 15 15 15 15 15 15 16 16 17 17 18 18 19 19 19 19 19 19 18 18 18 18 18 18 18 18 17 17 17 16 16
26 26 25 25 23 21 20 19 18 17 16 16 15 15 15 15 15 15 15 15 16 16 16 15 15 16 17 17 18 18 18 18 18 18 18 18 18 18 18 18 18 18 18 18 17 17 17 16 15
27 24 22 20 19 20 20 18 17 16 16 16 15 15 15 15 15 15 15 15 15 16 16 16 16 16 16 16 16 16 17 17 17 17 17 17 17 17 17 17 17 17 17 17 17 17 17 16 15
24 21 19 20 18 18 18 17 16 16 16 16 16 16 16 16 16 16 16 16 15 15 15 15 15 15 15 15 15 15 15 15 15 15 15 15 16 16 17 17 17 17 17 17 17 17 16 16 15
25 22 20 20 19 18 18 17 16 17 16 17 17 16 16 16 16 16 16 15 15 15 15 15 14 14 14 14 14 14 14 14 14 14 13 14 14 14 15 16 16 16 16 16 16 16 16 16 15
25 22 21 19 20 18 17 16 16 16 16 16 16 16 16 16 16 16 16 16 15 15 15 14 14 14 13 13 13 13 13 13 13 13 13 13 13 13 13 14 14 14 14 14 15 15 15 15 15
24 22 19 19 20 19 18 17 16 15 15 15 15 16 16 16 16 16 16 16 16 15 15 14 14 13 13 13 13 13 12 12 12 12 12 12 12 12 13 13 13 13 13 13 14 14 15 15 15
23 22 20 18 18 19 18 17 16 15 15 15 15 16 16 16 16 16 16 15 15 15 14 14 14 13 13 13 13 12 12 12 12 12 11 11 11 11 12 12 12 12 12 13 13 14 14 14 14
22 21 20 19 19 17 17 16 16 15 15 15 16 16 16 16 16 15 14 14 14 14 14 14 13 13 13 13 12 12 12 12 12 12 11 11 11 11 11 11 11 11 11 12 12 13 13 14 14
Wind_Speed
9 8 3 1 1 4 6 7 7 9 8 6 10 11 9 5 4 4 6 19 21 19 18 23 25 26 25 23 22 21 20 19 18 17 17 17 16 16 15 15 15 15 14 12 11 11 11 11 10
5 5 2 0 4 4 6 6 10 9 4 2 8 8 7 6 7 10 8 18 23 20 18 21 25 25 25 24 23 22 21 20 19 18 17 17 16 15 15 15 15 14 14 12 11 10 10 9 9
4 4 3 2 2 4 5 4 8 12 7 3 4 5 5 7 10 9 11 20 18 15 16 21 26 25 25 24 23 22 22 21 20 19 19 18 17 16 15 15 14 14 14 13 12 11 10 10 9
3 3 2 3 4 6 6 4 2 9 8 7 4 5 4 6 9 12 19 19 18 14 15 21 25 25 24 24 23 22 22 21 20 20 19 18 17 16 16 15 14 14 13 13 12 11 10 10 9
3 3 2 2 6 6 6 2 5 5 7 5 5 5 4 4 17 22 21 20 18 14 13 20 24 24 24 24 23 22 22 21 19 18 17 16 15 14 14 14 13 12 12 11 11 11 11 11 10
2 3 1 4 5 5 6 5 8 6 3 1 4 4 1 9 20 21 21 19 19 18 14 18 24 24 23 23 22 22 21 20 19 18 18 16 15 14 13 13 13 12 12 12 12 12 12 13 13
4 2 4 5 4 4 5 5 8 11 8 6 4 5 4 10 16 19 18 17 17 17 15 13 19 22 23 23 22 21 21 20 19 19 18 18 17 16 15 14 14 14 13 13 13 13 13 13 14
6 2 4 4 4 5 4 5 6 12 8 5 6 9 7 11 14 17 16 16 16 16 16 14 13 15 17 19 21 21 20 20 19 19 18 18 17 16 16 15 15 15 15 15 15 15 15 15 15
3 2 5 4 4 4 4 4 4 4 5 3 4 7 9 17 17 17 13 12 13 15 14 14 13 12 13 14 18 20 20 20 19 18 19 17 14 14 14 15 16 17 17 17 18 18 18 17 16
5 4 9 8 8 6 7 8 8 6 5 4 4 5 12 19 20 21 18 19 19 17 15 13 14 13 12 14 14 13 15 15 16 14 15 14 13 13 13 14 19 20 20 20 20 20 19 17 12
5 8 9 12 14 8 6 6 7 11 8 12 14 15 19 17 18 20 20 22 22 19 17 15 15 14 13 9 8 8 10 10 13 14 14 12 11 11 11 9 12 15 17 15 15 16 13 12 11
6 10 10 10 10 7 6 6 3 8 14 19 20 20 21 19 21 21 20 19 16 16 16 16 16 14 14 9 8 8 7 7 8 13 14 10 6 6 6 6 7 7 8 7 8 6 9 11 13
5 7 10 10 10 8 8 9 8 7 9 15 15 16 20 20 18 14 9 9 9 10 9 13 14 14 12 10 8 9 8 7 8 9 12 12 8 7 6 4 4 5 6 4 4 4 6 7 6
8 10 13 12 12 8 8 11 10 8 5 14 16 17 15 13 11 5 2 4 8 7 5 4 10 10 9 8 7 7 6 5 6 7 11 14 9 5 5 4 4 3 4 4 4 5 5 4 3
7 10 13 11 10 8 7 11 12 8 7 14 16 13 8 4 9 13 15 15 11 8 7 4 3 5 6 6 6 6 5 5 5 5 8 10 9 6 5 4 3 3 4 4 3 3 2 2 2
7 6 8 14 10 10 3 11 18 7 7 11 11 7 11 16 19 20 21 21 18 14 13 11 8 5 2 1 3 3 4 5 5 5 6 9 9 8 5 4 3 3 3 2 2 2 2 2 2
4 5 10 14 9 6 6 9 10 3 11 12 12 13 16 16 17 15 16 15 13 12 12 12 11 7 6 6 4 3 2 4 4 5 5 7 9 9 5 4 3 3 2 2 2 1 2 1 2
7 7 7 7 10 4 3 3 13 15 19 19 17 15 14 14 11 9 10 11 9 10 9 7 7 9 8 7 6 4 3 3 3 5 5 8 7 9 6 4 4 4 2 1 1 1 1 1 2
6 5 6 6 8 9 11 15 19 20 21 18 14 11 9 8 5 6 9 10 7 8 10 6 4 7 8 7 6 4 4 3 4 5 7 8 8 9 6 5 5 4 4 3 3 2 2 0 1
6 6 6 6 8 8 12 17 16 20 18 15 13 12 9 6 5 8 10 11 10 9 6 4 5 7 9 8 5 4 3 3 4 5 6 7 7 8 7 7 5 5 4 3 3 3 2 1 1
6 6 6 5 5 8 7 8 12 12 15 16 15 13 12 10 10 12 14 15 14 12 8 5 3 4 5 6 3 1 1 2 1 2 4 6 7 7 7 9 7 6 5 4 3 2 3 2 0
6 8 6 4 4 4 4 2 5 7 14 16 15 13 12 10 10 11 13 14 13 11 10 8 7 7 7 7 6 4 2 1 1 2 3 5 6 7 7 9 9 7 5 5 4 3 4 4 1
6 6 4 3 1 1 4 5 3 4 10 12 11 10 8 7 7 9 9 9 9 8 7 6 6 7 7 8 9 8 7 5 4 4 4 3 3 4 6 8 8 8 6 6 5 4 4 3 3
2 7 8 7 5 3 3 5 3 3 3 4 5 4 4 4 5 6 6 7 6 5 4 4 5 5 5 6 7 7 7 7 7 7 7 6 4 3 4 6 7 8 7 7 6 6 5 4 4
7 7 6 7 6 3 1 6 2 4 5 5 3 1 2 2 3 4 4 3 2 1 1 2 3 4 4 5 5 4 4 5 5 5 5 5 4 4 5 3 6 6 7 7 6 6 5 5 5
1 7 5 3 4 3 3 4 3 3 4 4 3 2 1 3 3 3 2 0 2 3 3 2 2 0 2 3 3 3 4 3 2 3 3 4 4 4 6 6 3 4 6 7 6 5 6 5 6
1 1 6 7 1 2 1 4 2 5 4 3 2 2 3 4 4 5 4 3 2 3 3 4 3 3 3 2 2 1 2 3 4 4 3 3 4 5 6 7 6 4 5 6 7 6 7 6 6
2 1 6 4 2 2 1 3 5 7 4 1 0 1 3 4 5 6 6 6 6 4 3 3 3 5 6 6 6 5 5 5 5 4 6 5 5 5 7 7 7 7 6 7 7 7 7 8 7
7 6 5 2 3 3 2 3 3 5 4 3 3 4 5 7 8 9 9 9 8 6 5 5 5 5 6 7 7 7 7 7 6 6 7 6 6 6 6 6 7 7 7 7 6 7 8 9 8
6 5 2 2 4 3 2 2 3 6 5 3 4 6 8 9 10 9 10 10 9 8 8 8 8 8 9 8 8 9 9 8 8 8 9 8 8 7 7 6 7 7 7 6 6 7 7 8 8
Wind_Direction
159 159 156 168 60 36 323 302 332 348 18 44 81 92 90 84 151 169 141 152 146 153 159 157 158 160 161 159 153 150 149 147 148 148 146 143 141 139 137 134 135 139 139 135 132 133 135 134 136
161 166 140 20 77 35 315 311 328 336 346 111 80 79 79 69 85 114 126 152 149 152 156 158 158 160 162 161 158 156 155 155 156 156 154 151 148 147 147 146 145 146 147 149 151 152 152 152 152
167 177 153 71 95 169 234 279 306 326 332 336 61 57 81 115 122 133 146 148 145 150 156 160 160 162 164 164 163 162 162 161 162 162 161 159 158 156 156 157 157 157 157 159 163 166 167 169 171
143 117 58 81 213 224 226 227 302 341 351 17 68 60 52 129 135 139 142 148 149 153 159 163 162 165 167 167 168 168 168 168 169 169 168 167 167 167 167 167 168 167 166 166 169 173 177 180 183
97 98 81 247 233 232 235 220 101 38 343 27 64 74 20 47 125 137 148 154 155 156 161 166 165 167 169 171 172 173 173 174 174 174 174 174 175 177 177 178 178 178 177 178 181 186 191 194 198
90 93 119 250 249 236 221 191 120 93 338 339 96 101 106 128 136 148 155 160 160 161 165 171 170 171 172 174 176 177 178 178 179 179 180 181 183 186 189 190 191 193 194 195 197 202 205 207 209
156 135 234 255 285 252 209 184 151 152 197 230 155 115 148 156 153 156 160 161 161 163 168 175 175 176 177 179 180 182 182 184 185 186 186 187 190 193 197 200 203 205 208 209 210 214 216 215 215
155 110 281 289 307 296 180 170 188 165 180 178 157 153 177 186 158 160 161 162 164 168 173 178 176 177 179 182 186 187 188 190 191 193 193 195 197 200 205 208 213 215 217 219 220 221 224 224 224
113 61 260 255 273 293 201 194 203 177 148 189 197 185 180 167 156 162 164 162 170 176 180 179 177 177 177 180 190 192 194 196 197 199 201 202 205 209 214 218 221 224 225 226 226 226 227 229 232
122 194 245 238 253 271 233 215 184 161 167 202 219 201 159 167 167 172 174 175 180 182 184 183 182 180 178 186 189 192 197 200 200 201 205 204 202 209 217 224 231 232 232 232 232 231 230 230 231
186 219 259 272 268 267 269 251 185 158 188 206 197 185 172 177 178 182 184 184 186 182 180 182 184 184 183 188 181 189 198 201 205 207 207 204 203 212 222 223 237 237 235 232 235 235 229 224 219
272 272 272 274 287 296 287 289 248 196 211 203 192 179 175 183 189 192 191 188 181 178 183 181 184 184 188 188 181 185 193 199 207 213 206 202 206 211 214 215 224 222 221 216 221 223 220 225 226
282 288 305 301 308 309 314 303 294 276 237 186 176 177 186 191 195 196 186 168 162 169 183 188 188 185 187 189 186 187 194 199 206 206 205 204 209 216 215 210 215 215 211 208 211 217 224 228 228
291 308 306 298 303 304 313 308 315 291 169 166 175 187 193 192 188 182 155 134 136 141 147 175 198 189 180 182 183 188 189 192 196 202 205 202 201 204 206 211 215 212 204 203 201 209 217 227 227
301 323 318 299 293 288 336 320 292 281 167 177 184 185 173 95 54 41 32 29 38 50 44 22 248 206 158 153 167 172 173 168 183 189 185 181 182 184 187 196 208 210 199 193 194 210 205 218 219
335 331 300 282 273 267 257 273 281 305 151 170 173 137 86 65 58 52 49 46 37 35 32 20 339 325 1 145 179 177 171 171 181 175 167 170 176 177 172 185 204 202 187 179 192 203 208 219 224
329 279 278 292 291 248 194 247 298 16 104 98 96 98 95 81 72 66 64 61 53 42 33 21 356 325 323 316 293 265 214 188 176 165 168 178 182 180 171 187 204 189 181 201 220 191 192 226 260
271 281 293 318 337 15 86 8 18 33 75 79 80 86 92 87 86 88 86 79 79 89 69 39 344 320 302 303 297 286 267 213 175 172 177 178 181 175 167 170 171 163 152 147 150 154 161 199 242
267 317 325 320 341 33 53 52 42 49 64 65 60 60 67 80 91 80 79 83 80 88 96 112 203 245 257 257 260 255 242 218 191 190 184 180 175 168 163 159 154 151 149 154 148 144 120 199 185
338 345 331 322 351 31 63 64 55 53 57 53 42 27 13 10 30 51 59 62 58 66 88 141 214 238 247 250 245 234 224 218 200 195 196 192 177 169 168 163 164 161 151 139 124 125 128 160 114
333 312 307 315 6 26 72 54 41 47 55 51 39 22 8 13 30 43 48 48 48 45 35 36 27 357 325 300 283 295 14 21 60 221 224 214 190 176 169 171 168 170 163 166 166 151 149 162 68
292 284 300 320 6 341 50 65 35 30 43 41 33 20 12 13 34 49 53 52 52 50 44 35 31 37 27 12 11 19 22 330 314 276 257 247 216 187 177 179 177 175 171 175 194 169 158 154 193
269 295 329 324 317 5 27 93 11 12 38 36 29 21 6 357 29 51 59 63 62 59 57 47 33 32 32 37 34 33 30 13 360 1 355 317 269 226 202 191 182 178 178 181 189 190 188 172 182
339 25 21 36 53 11 352 102 15 26 67 55 34 17 344 349 31 52 61 67 61 49 42 35 36 30 22 33 43 44 34 19 14 8 2 352 338 322 281 225 197 185 181 184 189 193 197 203 212
52 61 20 357 358 289 19 96 126 138 144 135 142 220 275 320 23 41 51 65 90 111 99 62 48 21 10 24 30 31 28 17 10 352 348 348 341 333 327 279 214 195 188 185 181 191 208 214 222
322 119 136 233 254 289 15 92 157 174 177 162 152 177 317 341 355 7 359 277 236 222 211 200 174 244 351 21 15 10 8 356 335 329 323 320 308 301 321 337 291 217 195 190 188 199 214 215 219
275 236 179 162 245 95 132 115 172 220 199 153 108 50 6 350 352 347 340 329 296 267 249 233 218 223 225 213 211 280 318 318 308 311 313 305 303 309 326 327 322 294 238 216 201 208 216 213 216
140 158 60 66 38 347 272 207 191 194 193 152 140 310 313 315 310 303 294 280 265 238 217 208 209 222 223 218 219 222 236 249 263 284 296 298 301 312 321 320 314 305 282 247 222 217 219 216 220
355 14 51 76 151 143 307 286 225 191 200 224 255 259 271 278 278 274 272 269 260 248 240 243 241 237 238 235 234 238 243 242 244 253 265 272 279 289 295 300 305 305 295 277 253 239 227 221 223
39 17 53 90 342 66 107 292 229 188 214 237 291 299 297 291 288 291 298 298 290 276 268 262 258 253 250 245 242 245 249 246 244 248 253 254 260 267 269 276 284 291 296 300 288 268 257 238 229
Height
1516 1516 1516 1517 1518 1523 1522 1508 1496 1490 1486 1485 1483 1483 1486 1491 1496 1503 1499 1500 1505 1508 1511 1515 1517 1519 1521 1523 1524 1526 1527 1528 1529 1530 1532 1534 1535 1536 1538 1538 1539 1541 1542 1543 1544 1545 1546 1547 1548
1516 1516 1517 1517 1520 1532 1524 1505 1499 1495 1494 1488 1485 1487 1489 1492 1493 1494 1497 1501 1505 1507 1510 1514 1517 1519 1520 1522 1524 1525 1526 1528 1529 1531 1532 1534 1535 1537 1538 1539 1540 1541 1542 1543 1544 1545 1546 1547 1548
1516 1516 1517 1517 1522 1528 1519 1502 1498 1495 1493 1489 1488 1489 1491 1494 1494 1495 1497 1502 1506 1508 1510 1513 1516 1518 1520 1521 1523 1524 1526 1527 1529 1530 1532 1533 1535 1536 1537 1538 1539 1540 1541 1542 1543 1545 1546 1547 1548
1516 1516 1517 1521 1524 1515 1506 1496 1497 1495 1494 1492 1491 1492 1493 1495 1495 1497 1500 1503 1505 1507 1510 1512 1514 1516 1518 1520 1522 1523 1525 1526 1528 1530 1531 1533 1534 1535 1536 1537 1538 1539 1540 1541 1542 1543 1544 1545 1546
1514 1515 1520 1524 1517 1506 1500 1498 1494 1496 1497 1495 1493 1494 1495 1496 1496 1498 1500 1503 1504 1507 1509 1511 1513 1515 1517 1518 1520 1522 1523 1525 1527 1528 1530 1532 1533 1534 1536 1536 1537 1538 1539 1540 1541 1542 1543 1544 1545
1513 1513 1524 1527 1513 1500 1497 1496 1493 1495 1497 1496 1495 1495 1496 1496 1496 1498 1500 1502 1504 1505 1507 1510 1512 1514 1516 1517 1519 1521 1522 1524 1526 1527 1529 1530 1532 1533 1534 1535 1536 1537 1538 1539 1539 1540 1541 1542 1543
1512 1514 1520 1515 1510 1500 1495 1494 1491 1491 1495 1496 1494 1495 1496 1496 1496 1497 1500 1502 1503 1504 1506 1508 1510 1512 1514 1516 1518 1520 1521 1523 1524 1526 1527 1528 1530 1531 1532 1534 1534 1535 1536 1536 1537 1538 1539 1540 1541
1508 1512 1515 1513 1507 1500 1492 1490 1489 1487 1489 1491 1491 1491 1493 1495 1496 1498 1500 1501 1502 1503 1504 1506 1508 1510 1512 1514 1516 1518 1519 1521 1523 1524 1525 1526 1528 1529 1530 1532 1533 1533 1534 1534 1535 1536 1537 1538 1538
1507 1515 1519 1511 1503 1496 1491 1490 1489 1488 1488 1488 1487 1486 1485 1490 1494 1496 1498 1498 1500 1501 1502 1503 1505 1508 1510 1512 1514 1515 1517 1519 1520 1522 1523 1524 1525 1526 1528 1529 1530 1530 1531 1532 1532 1533 1534 1535 1536
1504 1516 1508 1498 1494 1491 1489 1488 1487 1487 1487 1487 1485 1483 1483 1486 1488 1490 1491 1492 1494 1496 1499 1501 1503 1505 1507 1509 1511 1512 1514 1516 1518 1519 1520 1521 1523 1524 1525 1525 1526 1527 1528 1529 1529 1530 1531 1532 1532
1500 1504 1495 1490 1488 1487 1484 1483 1483 1482 1484 1480 1477 1477 1478 1481 1483 1485 1486 1485 1487 1492 1496 1499 1501 1503 1505 1506 1509 1511 1513 1514 1515 1516 1518 1519 1520 1521 1522 1522 1523 1523 1525 1525 1526 1526 1527 1527 1529
1499 1495 1491 1487 1484 1482 1480 1478 1478 1477 1473 1470 1471 1473 1475 1477 1478 1479 1480 1482 1485 1490 1494 1497 1499 1501 1503 1505 1507 1509 1510 1512 1513 1514 1515 1516 1516 1517 1518 1519 1519 1519 1520 1521 1522 1523 1523 1524 1525
1495 1492 1487 1484 1481 1479 1477 1475 1473 1469 1467 1467 1470 1473 1473 1473 1474 1477 1481 1485 1489 1493 1496 1498 1499 1500 1502 1504 1506 1507 1509 1510 1511 1512 1512 1513 1513 1514 1515 1516 1516 1516 1516 1517 1518 1519 1520 1520 1521
1495 1491 1486 1481 1478 1476 1475 1473 1471 1467 1467 1467 1469 1471 1474 1476 1476 1479 1483 1487 1489 1492 1494 1497 1499 1499 1500 1501 1504 1506 1507 1508 1509 1509 1510 1510 1511 1511 1512 1512 1512 1512 1512 1513 1514 1514 1515 1516 1517
1493 1492 1486 1479 1475 1473 1474 1476 1468 1466 1468 1469 1471 1473 1477 1482 1486 1489 1492 1495 1496 1495 1494 1496 1497 1497 1497 1499 1502 1504 1505 1506 1507 1507 1508 1509 1509 1509 1509 1509 1508 1508 1508 1509 1510 1511 1511 1512 1513
1494 1497 1499 1479 1472 1470 1479 1487 1467 1467 1467 1469 1473 1479 1484 1489 1492 1493 1493 1493 1495 1494 1494 1492 1493 1493 1495 1498 1501 1503 1504 1504 1506 1506 1506 1507 1507 1507 1507 1506 1505 1505 1505 1505 1506 1507 1507 1508 1508
1503 1508 1501 1484 1469 1468 1475 1483 1470 1470 1470 1474 1478 1482 1486 1488 1490 1491 1492 1491 1491 1488 1488 1486 1487 1489 1492 1497 1499 1500 1501 1503 1504 1504 1505 1505 1506 1505 1504 1503 1503 1503 1502 1502 1503 1503 1503 1504 1504
1510 1505 1497 1489 1474 1470 1477 1484 1482 1481 1480 1485 1487 1487 1487 1488 1490 1490 1490 1488 1488 1483 1483 1481 1485 1484 1489 1493 1496 1498 1499 1501 1502 1502 1503 1503 1503 1503 1502 1501 1501 1501 1500 1499 1499 1499 1499 1500 1500
1494 1495 1495 1485 1474 1477 1486 1494 1495 1492 1491 1496 1498 1497 1496 1494 1493 1491 1488 1486 1487 1482 1481 1482 1488 1488 1491 1493 1495 1497 1498 1499 1500 1501 1501 1501 1501 1501 1500 1499 1499 1498 1497 1496 1496 1495 1495 1496 1496
1489 1494 1494 1485 1477 1480 1492 1502 1501 1498 1499 1502 1502 1503 1502 1499 1495 1491 1488 1485 1485 1485 1485 1483 1488 1490 1492 1494 1496 1498 1498 1498 1499 1500 1499 1499 1499 1499 1498 1498 1497 1497 1495 1493 1492 1491 1491 1492 1492
1490 1492 1491 1488 1483 1484 1489 1506 1506 1505 1503 1502 1504 1505 1504 1501 1496 1492 1488 1487 1488 1489 1490 1487 1490 1493 1495 1496 1497 1496 1496 1497 1497 1497 1498 1498 1497 1497 1496 1496 1496 1495 1493 1491 1490 1488 1488 1488 1489
1495 1483 1482 1483 1492 1503 1498 1517 1515 1511 1508 1506 1507 1508 1507 1505 1499 1495 1493 1492 1492 1493 1493 1493 1493 1493 1494 1495 1494 1493 1494 1494 1494 1494 1495 1495 1495 1495 1494 1494 1494 1493 1491 1490 1488 1486 1485 1485 1485
1486 1479 1481 1484 1491 1503 1505 1518 1523 1514 1515 1513 1513 1511 1510 1509 1503 1499 1497 1496 1497 1497 1497 1497 1496 1494 1494 1493 1492 1492 1491 1491 1490 1490 1490 1491 1491 1491 1491 1491 1491 1490 1489 1488 1487 1485 1483 1483 1482
1478 1483 1487 1496 1505 1518 1514 1522 1529 1521 1518 1514 1513 1513 1513 1511 1506 1502 1500 1499 1499 1499 1499 1498 1497 1496 1494 1492 1491 1490 1489 1488 1487 1486 1486 1486 1486 1485 1485 1485 1486 1486 1485 1485 1484 1483 1481 1480 1480
1483 1503 1522 1524 1531 1529 1516 1522 1528 1519 1515 1512 1513 1514 1513 1511 1507 1504 1502 1502 1501 1501 1500 1499 1497 1495 1493 1491 1490 1488 1487 1485 1484 1482 1481 1480 1480 1479 1479 1478 1478 1479 1480 1480 1480 1480 1478 1477 1476
1487 1499 1525 1534 1534 1529 1520 1527 1527 1519 1517 1514 1514 1514 1513 1512 1509 1507 1505 1504 1502 1501 1500 1498 1497 1495 1493 1492 1490 1487 1485 1483 1481 1479 1477 1476 1474 1473 1472 1471 1471 1472 1474 1474 1475 1475 1475 1474 1473
1490 1495 1497 1515 1517 1530 1529 1528 1526 1520 1518 1516 1516 1515 1514 1512 1510 1508 1506 1504 1502 1500 1498 1496 1494 1492 1491 1489 1487 1485 1483 1481 1478 1476 1474 1472 1470 1468 1466 1465 1465 1466 1467 1468 1469 1469 1470 1470 1469
1486 1490 1504 1515 1525 1533 1530 1528 1529 1523 1520 1519 1518 1517 1515 1513 1509 1506 1503 1501 1498 1496 1493 1491 1489 1487 1486 1484 1482 1480 1478 1476 1473 1471 1469 1467 1465 1463 1461 1460 1460 1460 1460 1461 1462 1463 1464 1464 1464
1492 1495 1503 1514 1518 1529 1534 1533 1520 1521 1521 1520 1518 1516 1514 1510 1507 1503 1500 1496 1492 1489 1487 1485 1484 1482 1480 1478 1476 1474 1472 1470 1468 1466 1464 1462 1460 1458 1457 1455 1454 1454 1454 1454 1455 1456 1457 1458 1458
1494 1499 1504 1519 1521 1524 1533 1535 1517 1519 1519 1519 1518 1516 1513 1509 1505 1501 1497 1492 1488 1485 1483 1480 1478 1476 1474 1472 1470 1468 1466 1464 1462 1460 1459 1457 1455 1454 1452 1450 1449 1448 1447 1447 1447 1448 1449 1450 1452